TimeCST,TemperatureF,Dew PointF,Humidity,Sea Level PressureIn,VisibilityMPH,Wind Direction,Wind SpeedMPH,Gust SpeedMPH,PrecipitationIn,Events,Conditions,WindDirDegrees,DateUTC
12:15 AM,46.4,32.0,57,30.16,10.0,Calm,Calm,-,N/A,,Unknown,0,2014-02-25 06:15:00
12:35 AM,46.4,33.8,62,30.16,10.0,Calm,Calm,-,N/A,Rain,Rain,0,2014-02-25 06:35:00
12:55 AM,44.6,32.0,61,30.16,10.0,Calm,Calm,-,N/A,,Unknown,0,2014-02-25 06:55:00
1:15 AM,44.6,32.0,61,30.17,10.0,Calm,Calm,-,N/A,,Unknown,0,2014-02-25 07:15:00
1:30 AM,44.6,32.0,61,30.17,10.0,Calm,Calm,-,N/A,,Unknown,0,2014-02-25 07:30:00
1:55 AM,44.6,32.0,61,30.17,10.0,Calm,Calm,-,N/A,,Unknown,0,2014-02-25 07:55:00
2:15 AM,44.6,35.6,71,30.17,10.0,Calm,Calm,-,N/A,,Unknown,0,2014-02-25 08:15:00
4:00 AM,44.6,35.6,71,30.17,10.0,Calm,Calm,-,N/A,,Unknown,0,2014-02-25 10:00:00
4:15 AM,42.8,35.6,76,30.17,10.0,Calm,Calm,-,N/A,,Unknown,0,2014-02-25 10:15:00
4:35 AM,42.8,35.6,76,30.17,10.0,Calm,Calm,-,N/A,,Unknown,0,2014-02-25 10:35:00
4:55 AM,42.8,35.6,76,30.17,10.0,Calm,Calm,-,N/A,,Unknown,0,2014-02-25 10:55:00
5:15 AM,42.8,37.4,81,30.17,10.0,Calm,Calm,-,N/A,,Unknown,0,2014-02-25 11:15:00
5:35 AM,42.8,35.6,76,30.17,10.0,Calm,Calm,-,N/A,,Unknown,0,2014-02-25 11:35:00
5:55 AM,42.8,35.6,76,30.17,10.0,Calm,Calm,-,N/A,,Unknown,0,2014-02-25 11:55:00
6:15 AM,42.8,33.8,70,30.16,10.0,Calm,Calm,-,N/A,,Unknown,0,2014-02-25 12:15:00
6:35 AM,42.8,35.6,76,30.16,10.0,Calm,Calm,-,N/A,,Unknown,0,2014-02-25 12:35:00
6:55 AM,42.8,33.8,70,30.17,10.0,Calm,Calm,-,N/A,,Unknown,0,2014-02-25 12:55:00
7:15 AM,41.0,35.6,81,30.17,10.0,Calm,Calm,-,N/A,,Unknown,0,2014-02-25 13:15:00
7:35 AM,42.8,35.6,76,30.17,10.0,Calm,Calm,-,N/A,,Unknown,0,2014-02-25 13:35:00
7:55 AM,42.8,35.6,76,30.18,10.0,Calm,Calm,-,N/A,,Unknown,0,2014-02-25 13:55:00
8:15 AM,44.6,33.8,66,30.18,10.0,Calm,Calm,-,N/A,,Unknown,0,2014-02-25 14:15:00
8:35 AM,44.6,33.8,66,30.18,10.0,Calm,Calm,-,N/A,,Unknown,0,2014-02-25 14:35:00
8:55 AM,48.2,35.6,62,30.19,10.0,Calm,Calm,-,N/A,,Unknown,0,2014-02-25 14:55:00
9:15 AM,50.0,37.4,62,30.18,10.0,Calm,Calm,-,N/A,,Unknown,0,2014-02-25 15:15:00
9:35 AM,51.8,37.4,58,30.18,10.0,Calm,Calm,-,N/A,,Unknown,0,2014-02-25 15:35:00
9:55 AM,51.8,33.8,50,30.18,10.0,NNE,3.5,-,N/A,,Unknown,30,2014-02-25 15:55:00
10:15 AM,51.8,32.0,47,30.17,10.0,NE,4.6,-,N/A,,Unknown,50,2014-02-25 16:15:00
10:35 AM,51.8,33.8,50,30.15,10.0,ENE,4.6,-,N/A,,Unknown,60,2014-02-25 16:35:00
10:50 AM,53.6,33.8,47,30.16,10.0,Calm,Calm,-,N/A,,Unknown,0,2014-02-25 16:50:00
11:20 AM,55.4,35.6,47,30.15,10.0,North,3.5,-,N/A,,Unknown,10,2014-02-25 17:20:00
11:35 AM,55.4,33.8,44,30.15,10.0,WNW,3.5,-,N/A,,Unknown,300,2014-02-25 17:35:00
11:55 AM,55.4,33.8,44,30.14,10.0,Calm,Calm,-,N/A,,Unknown,0,2014-02-25 17:55:00
12:20 PM,55.4,33.8,44,30.14,10.0,North,4.6,-,N/A,,Unknown,10,2014-02-25 18:20:00
12:35 PM,55.4,33.8,44,30.13,10.0,NNW,5.8,-,N/A,,Unknown,330,2014-02-25 18:35:00
12:55 PM,55.4,33.8,44,30.13,10.0,North,6.9,-,N/A,,Unknown,360,2014-02-25 18:55:00
1:15 PM,55.4,33.8,44,30.11,10.0,NNW,6.9,-,N/A,,Unknown,340,2014-02-25 19:15:00
1:35 PM,55.4,33.8,44,30.11,10.0,North,6.9,-,N/A,,Unknown,350,2014-02-25 19:35:00
1:55 PM,53.6,33.8,47,30.10,10.0,North,4.6,-,N/A,,Unknown,350,2014-02-25 19:55:00
2:15 PM,53.6,33.8,47,30.09,10.0,North,5.8,-,N/A,,Unknown,350,2014-02-25 20:15:00
2:35 PM,55.4,35.6,47,30.09,10.0,NNW,8.1,-,N/A,,Unknown,340,2014-02-25 20:35:00
2:55 PM,53.6,33.8,47,30.09,10.0,NNW,8.1,-,N/A,,Unknown,340,2014-02-25 20:55:00
3:15 PM,53.6,33.8,47,30.09,10.0,NNW,8.1,-,N/A,,Unknown,340,2014-02-25 21:15:00
3:35 PM,53.6,33.8,47,30.09,10.0,NNW,8.1,-,N/A,,Unknown,340,2014-02-25 21:35:00
3:55 PM,51.8,30.2,44,30.09,10.0,NNW,8.1,-,N/A,,Unknown,330,2014-02-25 21:55:00
4:15 PM,51.8,30.2,44,30.09,10.0,NNW,10.4,-,N/A,,Unknown,330,2014-02-25 22:15:00
4:35 PM,51.8,28.4,41,30.09,10.0,NNW,11.5,-,N/A,,Unknown,340,2014-02-25 22:35:00
4:55 PM,51.8,28.4,41,30.09,10.0,North,10.4,-,N/A,,Unknown,350,2014-02-25 22:55:00
5:15 PM,51.8,28.4,41,30.10,10.0,North,11.5,-,N/A,,Unknown,350,2014-02-25 23:15:00
5:35 PM,51.8,28.4,41,30.11,10.0,North,11.5,-,N/A,,Unknown,350,2014-02-25 23:35:00
5:55 PM,51.8,30.2,44,30.11,10.0,North,10.4,-,N/A,,Unknown,350,2014-02-25 23:55:00
6:15 PM,51.8,30.2,44,30.11,10.0,North,8.1,-,N/A,,Unknown,350,2014-02-26 00:15:00
6:35 PM,50.0,28.4,43,30.11,10.0,North,8.1,-,N/A,,Unknown,350,2014-02-26 00:35:00
6:55 PM,48.2,28.4,46,30.11,10.0,North,13.8,20.7,N/A,,Unknown,350,2014-02-26 00:55:00
7:15 PM,46.4,26.6,46,30.11,10.0,North,12.7,21.9,N/A,,Unknown,350,2014-02-26 01:15:00
7:35 PM,44.6,28.4,53,30.13,10.0,North,15.0,-,N/A,,Unknown,360,2014-02-26 01:35:00
7:55 PM,44.6,26.6,49,30.14,10.0,North,13.8,20.7,N/A,,Unknown,360,2014-02-26 01:55:00
8:15 PM,44.6,26.6,49,30.15,10.0,North,11.5,-,N/A,,Unknown,360,2014-02-26 02:15:00
8:40 PM,44.6,26.6,49,30.16,10.0,North,13.8,19.6,N/A,,Unknown,350,2014-02-26 02:40:00
8:55 PM,42.8,26.6,53,30.17,10.0,North,13.8,-,N/A,,Unknown,350,2014-02-26 02:55:00
9:15 PM,42.8,26.6,53,30.18,10.0,North,12.7,18.4,N/A,,Unknown,350,2014-02-26 03:15:00
9:35 PM,42.8,26.6,53,30.18,10.0,North,12.7,18.4,N/A,,Unknown,360,2014-02-26 03:35:00
9:55 PM,42.8,26.6,53,30.18,10.0,North,13.8,-,N/A,,Unknown,360,2014-02-26 03:55:00
10:15 PM,42.8,26.6,53,30.18,10.0,North,17.3,21.9,N/A,,Unknown,360,2014-02-26 04:15:00
10:35 PM,41.0,26.6,57,30.18,10.0,North,17.3,-,N/A,,Unknown,360,2014-02-26 04:35:00
10:55 PM,41.0,26.6,57,30.20,10.0,North,13.8,23.0,N/A,,Unknown,350,2014-02-26 04:55:00
11:15 PM,41.0,24.8,53,30.21,10.0,North,15.0,20.7,N/A,,Unknown,350,2014-02-26 05:15:00
11:35 PM,41.0,24.8,53,30.22,10.0,North,12.7,23.0,N/A,,Unknown,350,2014-02-26 05:35:00
11:55 PM,41.0,24.8,53,30.23,10.0,NNW,15.0,18.4,N/A,,Unknown,340,2014-02-26 05:55:00